User: anonymous   Login
Location: Peebles
(55.6412°N, 3.1714°W)
Time: 21:36:19
(UTC+01:00)
Language:

METEOR 2-5 DEB - Orbit

View from above orbital plane
View from above orbital plane
View from above satellite
View from above satellite

Ground track
Ground track

The orbit data is extracted from the following two-line orbital elements,

1 45511U 79095CT  24200.67432047  .00004928  00000-0  24789-2 0  9992
2 45511  81.2171 181.9410 0011006  29.8668 330.3132 14.16273676340576
Epoch (UTC): 18 July 2024 16:11:01
Eccentricity: 0.0011006
inclination: 81.2171°
perigee height: 830 km
apogee height: 846 km
right ascension of ascending node: 181.9410°
argument of perigee: 29.8668°
revolutions per day: 14.16273676
mean anomaly at epoch: 330.3132°
orbit number at epoch: 34057

The dashed part of the orbit path shows where the satellite is in the earth's shadow,  

DLR